• In Netherlands
  • List of Countries
  • For 7 days
  • Water Temperature
  • Satellite Maps
  • Weather Map
  • Weather Widgets
  • user-avatar
    Login

    Hourly Weather Buenos Aires

    Today, 21 February, Tuesday

    Time Temperature Precipitation Wind Pressure Humidity
    00:00 +27°C° 0 mm 3 mps 759 mmHg 65%
    01:00 +26°C° 0 mm 3 mps 759 mmHg 70%
    02:00 +25°C° 0 mm 2 mps 759 mmHg 80%
    03:00 +24°C° 0 mm 1 mps 759 mmHg 81%
    04:00 +24°C° 0 mm 1 mps 759 mmHg 83%
    05:00 +23°C° 0 mm 1 mps 759 mmHg 85%
    06:00 +26°C° 0 mm 1 mps 759 mmHg 75%
    07:00 +26°C° 0 mm 0 mps 760 mmHg 66%
    08:00 +32°C° 0 mm 1 mps 760 mmHg 58%
    09:00 +33°C° 0 mm 1 mps 759 mmHg 52%
    10:00 +35°C° 0 mm 1 mps 759 mmHg 46%
    11:00 +37°C° 0 mm 1 mps 759 mmHg 40%
    12:00 +39°C° 0 mm 1 mps 758 mmHg 39%
    13:00 +39°C° 0 mm 2 mps 758 mmHg 37%
    14:00 +39°C° 0 mm 2 mps 758 mmHg 36%
    15:00 +39°C° 0 mm 3 mps 757 mmHg 39%
    16:00 +38°C° 0 mm 3 mps 757 mmHg 41%
    17:00 +37°C° 0 mm 3 mps 757 mmHg 44%
    18:00 +35°C° 0.4 mm 3 mps 757 mmHg 52%
    19:00 +31°C° 0.4 mm 3 mps 757 mmHg 61%
    20:00 +29°C° 0.4 mm 3 mps 757 mmHg 70%
    21:00 +29°C° 0.5 mm 3 mps 757 mmHg 72%
    22:00 +28°C° 0.5 mm 3 mps 758 mmHg 74%
    23:00 +28°C° 0.5 mm 3 mps 758 mmHg 77%

    Tomorrow, 22 February, Wednesday

    Time Temperature Precipitation Wind Pressure Humidity
    00:00 +28°C° 0.4 mm 3 mps 758 mmHg 79%
    01:00 +28°C° 0.4 mm 3 mps 757 mmHg 81%
    02:00 +27°C° 0.4 mm 3 mps 757 mmHg 83%
    03:00 +27°C° 0 mm 2 mps 757 mmHg 84%
    04:00 +27°C° 0 mm 2 mps 757 mmHg 85%
    05:00 +26°C° 0 mm 2 mps 757 mmHg 85%
    06:00 +28°C° 0.1 mm 2 mps 757 mmHg 80%
    07:00 +30°C° 0.1 mm 2 mps 758 mmHg 74%
    08:00 +31°C° 0.1 mm 2 mps 758 mmHg 68%
    09:00 +33°C° 0.4 mm 1 mps 758 mmHg 61%
    10:00 +35°C° 0.4 mm 1 mps 758 mmHg 53%
    11:00 +37°C° 0.4 mm 1 mps 757 mmHg 46%
    12:00 +37°C° 0.2 mm 1 mps 757 mmHg 44%
    13:00 +38°C° 0.2 mm 2 mps 756 mmHg 42%
    14:00 +39°C° 0.2 mm 2 mps 756 mmHg 40%
    15:00 +38°C° 0 mm 2 mps 756 mmHg 41%
    16:00 +38°C° 0 mm 2 mps 755 mmHg 42%
    17:00 +38°C° 0 mm 2 mps 755 mmHg 42%
    18:00 +36°C° 0 mm 2 mps 755 mmHg 48%
    19:00 +34°C° 0 mm 3 mps 755 mmHg 54%
    20:00 +30°C° 0 mm 3 mps 755 mmHg 60%
    21:00 +30°C° 0.1 mm 3 mps 756 mmHg 63%
    22:00 +30°C° 0.1 mm 3 mps 756 mmHg 65%
    23:00 +29°C° 0.1 mm 3 mps 756 mmHg 68%

    Day after tomorrow, 23 February, Thursday

    Time Temperature Precipitation Wind Pressure Humidity
    00:00 +28°C° 0.2 mm 2 mps 756 mmHg 72%
    01:00 +28°C° 0.2 mm 2 mps 756 mmHg 77%
    02:00 +27°C° 0.2 mm 2 mps 756 mmHg 82%
    03:00 +27°C° 0 mm 2 mps 756 mmHg 84%
    04:00 +26°C° 0 mm 2 mps 756 mmHg 86%
    05:00 +26°C° 0 mm 2 mps 756 mmHg 89%
    06:00 +28°C° 0 mm 2 mps 756 mmHg 82%
    07:00 +29°C° 0 mm 2 mps 757 mmHg 76%
    08:00 +31°C° 0 mm 2 mps 757 mmHg 70%
    09:00 +34°C° 0 mm 2 mps 757 mmHg 61%
    10:00 +36°C° 0 mm 2 mps 757 mmHg 52%
    11:00 +38°C° 0 mm 2 mps 757 mmHg 44%
    12:00 +38°C° 0.1 mm 2 mps 756 mmHg 42%
    13:00 +39°C° 0.1 mm 2 mps 755 mmHg 41%
    14:00 +39°C° 0.1 mm 2 mps 755 mmHg 39%
    15:00 +38°C° 0.2 mm 2 mps 755 mmHg 45%
    16:00 +36°C° 0.2 mm 2 mps 755 mmHg 51%
    17:00 +35°C° 0.2 mm 3 mps 754 mmHg 56%
    18:00 +33°C° 0.2 mm 3 mps 755 mmHg 62%
    19:00 +32°C° 0.2 mm 4 mps 755 mmHg 69%
    20:00 +29°C° 0.2 mm 4 mps 756 mmHg 75%
    21:00 +28°C° 0.1 mm 4 mps 756 mmHg 78%
    22:00 +28°C° 0.1 mm 4 mps 756 mmHg 81%
    23:00 +27°C° 0.1 mm 4 mps 757 mmHg 85%

    24 February, Friday

    Time Temperature Precipitation Wind Pressure Humidity
    00:00 +26°C° 0.7 mm 4 mps 757 mmHg 88%
    01:00 +26°C° 0.7 mm 3 mps 757 mmHg 91%
    02:00 +25°C° 0.7 mm 3 mps 757 mmHg 94%
    03:00 +25°C° 0 mm 3 mps 757 mmHg 94%
    04:00 +24°C° 0 mm 3 mps 757 mmHg 95%
    05:00 +23°C° 0 mm 4 mps 757 mmHg 95%
    06:00 +25°C° 0 mm 4 mps 757 mmHg 92%
    07:00 +26°C° 0 mm 4 mps 758 mmHg 88%
    08:00 +26°C° 0 mm 4 mps 758 mmHg 85%
    09:00 +29°C° 0 mm 3 mps 758 mmHg 75%
    10:00 +31°C° 0 mm 3 mps 758 mmHg 66%
    11:00 +34°C° 0 mm 3 mps 758 mmHg 56%
    12:00 +35°C° 0 mm 3 mps 758 mmHg 52%
    13:00 +36°C° 0 mm 3 mps 757 mmHg 48%
    14:00 +37°C° 0 mm 4 mps 757 mmHg 45%
    15:00 +36°C° 0 mm 4 mps 756 mmHg 47%
    16:00 +35°C° 0 mm 5 mps 756 mmHg 48%
    17:00 +34°C° 0 mm 5 mps 756 mmHg 50%
    18:00 +32°C° 0 mm 5 mps 756 mmHg 60%
    19:00 +29°C° 0 mm 6 mps 757 mmHg 69%
    20:00 +26°C° 0 mm 6 mps 757 mmHg 78%
    21:00 +25°C° 0 mm 5 mps 757 mmHg 79%
    22:00 +25°C° 0 mm 5 mps 758 mmHg 80%
    23:00 +23°C° 0 mm 5 mps 758 mmHg 81%

    25 February, Saturday

    Time Temperature Precipitation Wind Pressure Humidity
    00:00 +23°C° 0 mm 4 mps 757 mmHg 84%
    01:00 +22°C° 0 mm 3 mps 757 mmHg 86%
    02:00 +22°C° 0 mm 3 mps 757 mmHg 89%
    03:00 +23°C° 0 mm 2 mps 757 mmHg 89%
    04:00 +23°C° 0 mm 2 mps 757 mmHg 89%
    05:00 +23°C° 0 mm 2 mps 758 mmHg 88%
    06:00 +24°C° 0 mm 2 mps 758 mmHg 82%
    07:00 +25°C° 0 mm 3 mps 759 mmHg 76%
    08:00 +27°C° 0 mm 3 mps 759 mmHg 70%
    09:00 +29°C° 0 mm 3 mps 759 mmHg 62%
    10:00 +32°C° 0 mm 4 mps 759 mmHg 54%
    11:00 +34°C° 0 mm 4 mps 759 mmHg 46%
    12:00 +34°C° 0 mm 4 mps 758 mmHg 44%
    13:00 +35°C° 0 mm 4 mps 758 mmHg 43%
    14:00 +36°C° 0 mm 5 mps 757 mmHg 41%
    15:00 +35°C° 0 mm 5 mps 757 mmHg 45%
    16:00 +34°C° 0 mm 5 mps 757 mmHg 48%
    17:00 +33°C° 0 mm 6 mps 757 mmHg 51%
    18:00 +30°C° 0 mm 6 mps 757 mmHg 60%
    19:00 +28°C° 0 mm 6 mps 758 mmHg 68%
    20:00 +26°C° 0 mm 6 mps 758 mmHg 76%
    21:00 +26°C° 0 mm 6 mps 758 mmHg 78%
    22:00 +26°C° 0 mm 6 mps 758 mmHg 79%
    23:00 +24°C° 0 mm 6 mps 759 mmHg 80%

    26 February, Sunday

    Time Temperature Precipitation Wind Pressure Humidity
    00:00 +24°C° 0 mm 6 mps 758 mmHg 80%
    01:00 +25°C° 0 mm 5 mps 758 mmHg 80%
    02:00 +25°C° 0 mm 5 mps 758 mmHg 81%
    03:00 +23°C° 0 mm 5 mps 758 mmHg 83%
    04:00 +23°C° 0 mm 5 mps 758 mmHg 85%
    05:00 +22°C° 0 mm 4 mps 758 mmHg 87%
    06:00 +23°C° 0 mm 4 mps 758 mmHg 81%
    07:00 +26°C° 0 mm 4 mps 759 mmHg 75%
    08:00 +27°C° 0 mm 4 mps 759 mmHg 69%
    09:00 +29°C° 0 mm 3 mps 759 mmHg 61%
    10:00 +30°C° 0 mm 3 mps 759 mmHg 53%
    11:00 +33°C° 0 mm 3 mps 759 mmHg 45%
    12:00 +34°C° 0 mm 3 mps 759 mmHg 42%
    13:00 +35°C° 0 mm 3 mps 758 mmHg 39%
    14:00 +36°C° 0 mm 4 mps 757 mmHg 37%
    15:00 +35°C° 0 mm 4 mps 757 mmHg 39%
    16:00 +34°C° 0 mm 5 mps 757 mmHg 41%
    17:00 +33°C° 0 mm 5 mps 757 mmHg 44%
    18:00 +30°C° 0 mm 5 mps 757 mmHg 52%
    19:00 +28°C° 0 mm 5 mps 757 mmHg 61%
    20:00 +26°C° 0 mm 5 mps 758 mmHg 69%
    21:00 +26°C° 0 mm 5 mps 758 mmHg 72%
    22:00 +25°C° 0 mm 5 mps 758 mmHg 74%
    23:00 +25°C° 0 mm 5 mps 757 mmHg 77%
    Show more